Total_Precipitation_Accumulation
0.01 0.03 0.07 0.16 0.13 0.05 0.07 0.07 0.07 0.04 0.03 0.08 0.12 0.22 0.33 0.23 0.08 0.05 0.24 0.41 0.42 0.37 0.48 0.46 0.28 0.19 0.22 0.09 0.06 0.08 0.08 0.05 0.07 0.09 0.13 0.12 0.14 0.13 0.12 0.10 0.07 0.04 0.05
0.01 0.05 0.11 0.13 0.07 0.04 0.05 0.09 0.08 0.07 0.05 0.06 0.06 0.12 0.32 0.65 0.64 0.26 0.11 0.20 0.29 0.29 0.37 0.51 0.38 0.28 0.36 0.21 0.14 0.10 0.12 0.09 0.10 0.15 0.27 0.24 0.23 0.18 0.17 0.13 0.08 0.04 0.03
0.03 0.09 0.08 0.07 0.03 0.05 0.04 0.07 0.08 0.11 0.08 0.06 0.06 0.06 0.08 0.31 0.64 0.57 0.34 0.19 0.21 0.28 0.31 0.38 0.47 0.41 0.30 0.28 0.22 0.15 0.12 0.12 0.15 0.28 0.38 0.31 0.25 0.19 0.16 0.13 0.08 0.07 0.05
0.07 0.11 0.08 0.07 0.05 0.07 0.05 0.06 0.09 0.12 0.08 0.07 0.06 0.06 0.04 0.12 0.33 0.40 0.49 0.48 0.34 0.43 0.56 0.58 0.53 0.52 0.34 0.27 0.26 0.20 0.13 0.16 0.20 0.26 0.31 0.25 0.16 0.11 0.09 0.08 0.07 0.05 0.04
0.14 0.11 0.07 0.05 0.06 0.09 0.09 0.07 0.07 0.14 0.11 0.07 0.06 0.06 0.04 0.10 0.25 0.33 0.40 0.55 0.77 0.77 0.79 0.81 0.74 0.67 0.63 0.43 0.32 0.31 0.29 0.25 0.25 0.24 0.25 0.21 0.17 0.13 0.10 0.08 0.09 0.07 0.03
0.15 0.11 0.08 0.08 0.09 0.10 0.09 0.09 0.06 0.10 0.08 0.04 0.03 0.02 0.04 0.05 0.21 0.34 0.43 0.55 0.74 0.92 0.78 0.65 0.66 0.70 0.74 0.75 0.52 0.45 0.38 0.31 0.29 0.26 0.26 0.21 0.17 0.13 0.10 0.08 0.08 0.08 0.06
0.15 0.13 0.09 0.09 0.10 0.10 0.09 0.10 0.10 0.08 0.05 0.02 0.01 0.01 0.00 0.02 0.06 0.15 0.37 0.45 0.59 0.79 0.92 0.94 0.90 0.88 0.76 0.68 0.60 0.52 0.47 0.40 0.30 0.22 0.20 0.18 0.14 0.10 0.09 0.09 0.09 0.07 0.04
0.12 0.14 0.09 0.08 0.08 0.11 0.15 0.14 0.13 0.11 0.04 0.02 0.01 0.01 0.01 0.03 0.05 0.08 0.16 0.36 0.33 0.53 0.72 0.84 0.97 1.05 0.83 0.67 0.66 0.76 0.62 0.42 0.32 0.22 0.17 0.16 0.13 0.10 0.09 0.08 0.05 0.03 0.03
0.13 0.12 0.12 0.10 0.09 0.14 0.22 0.25 0.13 0.10 0.06 0.02 0.01 0.01 0.00 0.01 0.08 0.08 0.06 0.11 0.17 0.28 0.36 0.52 0.71 0.77 0.88 0.70 0.60 0.69 0.62 0.51 0.42 0.33 0.26 0.19 0.13 0.09 0.05 0.04 0.04 0.04 0.07
0.31 0.21 0.19 0.17 0.16 0.20 0.22 0.16 0.14 0.14 0.06 0.04 0.03 0.02 0.04 0.01 0.05 0.08 0.05 0.01 0.04 0.06 0.10 0.21 0.45 0.57 0.62 0.58 0.51 0.45 0.44 0.43 0.28 0.23 0.17 0.12 0.07 0.06 0.05 0.02 0.02 0.03 0.03
0.38 0.37 0.26 0.20 0.24 0.23 0.19 0.16 0.17 0.16 0.07 0.05 0.04 0.02 0.02 0.03 0.04 0.07 0.07 0.01 0.01 0.01 0.02 0.03 0.08 0.18 0.27 0.34 0.32 0.27 0.31 0.25 0.20 0.14 0.09 0.05 0.04 0.04 0.05 0.05 0.03 0.01 0.01
0.64 0.52 0.47 0.32 0.19 0.21 0.20 0.17 0.21 0.25 0.18 0.08 0.04 0.03 0.03 0.03 0.06 0.07 0.08 0.08 0.05 0.01 0.01 0.02 0.03 0.04 0.08 0.12 0.12 0.14 0.12 0.08 0.07 0.07 0.06 0.07 0.08 0.07 0.05 0.02 0.01 0.00 0.00
0.75 0.97 0.87 0.51 0.34 0.29 0.35 0.31 0.27 0.27 0.21 0.09 0.04 0.03 0.03 0.02 0.06 0.10 0.11 0.10 0.09 0.04 0.05 0.07 0.06 0.04 0.05 0.07 0.07 0.06 0.06 0.06 0.06 0.05 0.06 0.04 0.02 0.01 0.01 0.00 0.00 0.00 0.00
0.54 0.91 1.33 1.35 0.72 0.50 0.46 0.46 0.48 0.38 0.28 0.12 0.05 0.03 0.03 0.03 0.04 0.04 0.07 0.12 0.14 0.12 0.15 0.13 0.13 0.14 0.12 0.13 0.12 0.09 0.06 0.04 0.03 0.03 0.02 0.01 0.00 0.00 0.00 0.00 0.00 0.00 0.00
0.38 0.77 0.93 1.35 1.47 0.82 0.65 0.72 0.69 0.70 0.69 0.40 0.14 0.09 0.05 0.04 0.09 0.09 0.06 0.06 0.09 0.14 0.13 0.15 0.15 0.12 0.09 0.06 0.04 0.03 0.03 0.03 0.02 0.01 0.01 0.00 0.00 0.00 0.00 0.00 0.00 0.00 0.00
0.26 0.61 0.79 0.98 1.54 1.67 1.04 0.87 1.05 1.04 0.88 0.92 0.82 0.53 0.47 0.39 0.29 0.21 0.23 0.27 0.25 0.21 0.11 0.11 0.11 0.08 0.06 0.05 0.04 0.03 0.02 0.01 0.01 0.01 0.01 0.00 0.00 0.00 0.00 0.00 0.00 0.00 0.00
0.17 0.26 0.47 0.79 1.09 1.29 1.35 1.05 0.75 0.73 0.77 0.83 0.88 0.79 0.67 0.72 0.64 0.55 0.46 0.40 0.36 0.25 0.21 0.22 0.18 0.14 0.12 0.09 0.05 0.02 0.01 0.01 0.01 0.00 0.00 0.00 0.00 0.00 0.00 0.00 0.00 0.00 0.00
0.12 0.26 0.37 0.48 0.84 1.14 1.28 1.18 1.10 0.88 0.65 0.81 0.92 0.92 0.86 0.76 0.73 0.73 0.67 0.52 0.48 0.41 0.34 0.30 0.25 0.19 0.15 0.12 0.07 0.05 0.03 0.02 0.00 0.00 0.00 0.00 0.00 0.00 0.00 0.00 0.00 0.00 0.00
0.14 0.17 0.31 0.48 0.54 0.74 1.01 1.16 1.14 1.14 1.08 1.04 1.00 0.80 0.69 0.67 0.62 0.57 0.52 0.44 0.37 0.35 0.30 0.25 0.20 0.15 0.10 0.06 0.03 0.01 0.01 0.00 0.00 0.00 0.00 0.00 0.00 0.00 0.00 0.00 0.00 0.00 0.00
0.20 0.18 0.18 0.28 0.49 0.66 0.71 0.84 0.97 1.04 1.04 0.99 0.96 0.94 0.75 0.50 0.49 0.50 0.43 0.37 0.31 0.28 0.22 0.16 0.12 0.08 0.05 0.03 0.01 0.00 0.00 0.00 0.00 0.00 0.00 0.00 0.00 0.00 0.00 0.00 0.00 0.00 0.00
0.15 0.17 0.16 0.18 0.22 0.26 0.41 0.56 0.66 0.67 0.72 0.71 0.68 0.66 0.63 0.53 0.46 0.37 0.31 0.25 0.19 0.14 0.09 0.06 0.04 0.02 0.01 0.01 0.00 0.00 0.00 0.00 0.00 0.00 0.00 0.00 0.00 0.00 0.00 0.00 0.00 0.00 0.00
0.14 0.15 0.17 0.17 0.21 0.24 0.26 0.28 0.32 0.36 0.40 0.40 0.42 0.38 0.31 0.28 0.24 0.21 0.16 0.13 0.08 0.05 0.03 0.02 0.01 0.01 0.01 0.00 0.00 0.00 0.00 0.00 0.00 0.00 0.00 0.00 0.00 0.00 0.00 0.00 0.00 0.00 0.00
0.10 0.12 0.13 0.13 0.15 0.17 0.20 0.22 0.20 0.18 0.19 0.20 0.19 0.19 0.16 0.12 0.09 0.07 0.05 0.04 0.03 0.02 0.01 0.01 0.01 0.01 0.00 0.00 0.00 0.00 0.00 0.00 0.00 0.00 0.00 0.00 0.00 0.00 0.00 0.00 0.00 0.00 0.00
0.06 0.07 0.08 0.11 0.11 0.11 0.11 0.12 0.11 0.09 0.10 0.10 0.09 0.08 0.08 0.07 0.04 0.03 0.03 0.02 0.02 0.01 0.00 0.00 0.00 0.00 0.00 0.00 0.00 0.00 0.00 0.00 0.00 0.00 0.00 0.00 0.00 0.00 0.00 0.00 0.00 0.00 0.00
0.04 0.04 0.04 0.05 0.05 0.05 0.05 0.05 0.06 0.06 0.05 0.04 0.03 0.03 0.03 0.02 0.02 0.01 0.01 0.01 0.00 0.00 0.00 0.00 0.00 0.00 0.00 0.00 0.00 0.00 0.00 0.00 0.00 0.00 0.00 0.00 0.00 0.00 0.00 0.00 0.00 0.00 0.00
0.02 0.02 0.01 0.01 0.02 0.02 0.02 0.02 0.02 0.02 0.02 0.01 0.00 0.00 0.00 0.00 0.01 0.00 0.00 0.00 0.00 0.00 0.00 0.00 0.00 0.00 0.00 0.00 0.00 0.00 0.00 0.00 0.00 0.00 0.00 0.00 0.00 0.00 0.00 0.00 0.00 0.00 0.00